Terug naar catalogus

STARLINK-34772

ActiefCommunicatieVLEO
NORAD 65020·PAYLOAD·🇺🇸 United States

Gelanceerd Jul 30, 2025 vanaf Cape Canaveral Space Force Station

Loading…

Volgende Passages (komende 24 uur)

TLE

VersSource: CelesTrak SupGP

Epoch: Sep 15, 2026, 03:42 UTC

1 65020C 25161F   26258.15465278  .00037874  00000+0  11191-2 0  2580
2 65020  53.1573 130.5441 0001151  74.0249 111.6092 15.34369756    11

Volg STARLINK-34772 in realtime met AllMySat

Download on the App Store